Regional Weather Roundup
Issued by NWS Jackson, KY

Home | Current Version | Previous Version | Text Only | Print | Product List | Glossary Off
Versions: 1 2 3 4 5 6 7 8 9 10 11 12 13 14 15 16 17 18 19 20 21 22 23 24 25 26 27 28

000
ASUS43 KJKL 292210
RWRJKL

EAST KENTUCKY HOURLY WEATHER ROUNDUP
NATIONAL WEATHER SERVICE JACKSON KY
600 PM EDT WED MAR 29 2017

NOTE: "FAIR" INDICATES FEW OR NO CLOUDS BELOW 12,000 FEET WITH
NO SIGNIFICANT WEATHER AND/OR OBSTRUCTIONS TO VISIBILITY.

* THESE REPORTS ARE NOT UNDER NWS QUALITY CONTROL AND MAY NOT
  REPORT WEATHER SUCH AS PRECIPITATION AND FOG.

KYZ079-080-083-085-087-088-110-112-115-119-120-292300
...EASTERN KENTUCKY...

CITY           SKY/WX    TMP DP  RH WIND       PRES   REMARKS
JACKSON        SUNNY     67  49  52 NE5       30.06F
LONDON         SUNNY     71  50  47 N7        30.03F
SOMERSET*      SUNNY     70  52  52 E8        30.02F
MONTICELLO*    SUNNY     73  56  54 NW8G17    30.01F
WILLIAMSBURG*  CLEAR     75  50  41 NE6       30.01F
MIDDLESBORO*   SUNNY     78  48  34 NW8       30.01S
HARLAN APT*    PTCLDY    73  46  38 N3        30.02F
PIKE CO APT*   CLOUDY    64  48  57 N3        30.08S
BIG SANDY APT* CLEAR     64  47  55 N7        30.08F
MOREHEAD APT*  CLEAR     63  45  51 NE12      30.10S
ASHLAND*       MOSUNNY   59  46  63 E3        30.12S
$$

KYZ035-036-041-042-044-050-067-078-099-292300
...CENTRAL KENTUCKY...

CITY           SKY/WX    TMP DP  RH WIND       PRES   REMARKS
MT STERLING*   SUNNY     64  48  55 E9        30.08F
FLEMING/MASON* SUNNY     59  47  63 E9        30.11R
DANVILLE*      SUNNY     64  52  63 E10       30.05F
LEXINGTON      MOSUNNY   64  49  57 E10       30.06F
FRANKFORT      SUNNY     63  48  58 E12       30.04F
LOUISVILLE     PTSUNNY   67  48  50 E13G20    30.01F
LEBANON*         N/A     66  54  63 E7        30.02F
GLASGOW*       SUNNY     75  53  46 E8        29.95F
BOWLING GREEN  SUNNY     76  55  48 E14G28    29.93F
$$

KYZ091>093-OHZ055-061-077-WVZ005-015-034-035-042-292300
...SOUTHERN OHIO/WEST VIRGINIA...

CITY           SKY/WX    TMP DP  RH WIND       PRES   REMARKS
COVINGTON      PTSUNNY   58  46  64 E10       30.08F
COLUMBUS       MOSUNNY   63  37  38 E7        30.12F
DAYTON         MOSUNNY   60  38  43 E14       30.13S
WILMINGTON     SUNNY     57  43  59 E8        30.12S
HUNTINGTON     PTSUNNY   59  46  62 VRB6      30.12F
CHARLESTON     MOSUNNY   61  45  55 CALM      30.10F
PINEVILLE*     PTSUNNY   71  44  39 MISG      30.11S
BECKLEY        SUNNY     60  44  55 N10       30.10F
BLUEFIELD      PTSUNNY   67  43  41 N7        30.07F
LOGAN CO APT*    N/A     63  48  59 VRB6      30.09F
$$

VAZ002-007-008-TNZ017-027-036-066-071-292300
...SOUTHWEST VIRGINIA/EAST TENNESSEE...

CITY           SKY/WX    TMP DP  RH WIND       PRES   REMARKS
WISE*          SUNNY     66  46  48 N6        30.09F
JONESVILLE*      N/A     75  48  38 S3        30.03F
ABINGDON*      SUNNY     74  47  38 CALM      30.05F
BRISTOL        MOSUNNY   76  48  37 CALM      30.02F
MORRISTOWN*    CLEAR     75  50  41 VRB6      30.01F
SEVIERVILLE*   CLEAR     77  46  33 W9        30.00S
KNOXVILLE      MOSUNNY   77  49  37 W6        29.99F
LAFOLLETTE*    PTCLDY    79  48  34 CALM      30.02S
OAK RIDGE      SUNNY     80  47  31 S7        29.99F
CROSSVILLE     SUNNY     75  49  39 CALM      30.01F
NASHVILLE      MOSUNNY   81  58  45 SE10      29.92F
$$

...KEY TO REMARKS...
VSB - VISIBILITY IN MILES
WCI - WIND CHILL INDEX
HX  - HEAT INDEX

$$




USA.gov is the U.S. government's official web portal to all federal, state and local government web resources and services.